Home   Weather   Randaberg   Past weeks

Flag for Norway Past Weather in Randaberg, Norway — Yesterday and Last 2 Weeks

Now
45 °F

Overcast.


Feels Like: 43 °F
Forecast: 41 / 45 °F
Wind: 3 mph from North

Location: Stavanger / Sola

Current Time: Dec 5, 2016 at 1:45:59 am

Latest Report: Dec 5, 2016 at 1:00 am


Visibility: 22 mi

Pressure: 30.28 "Hg

Humidity: 86%

Dew Point: 40 °F

Location of RandabergLocation

Past Weather in Randaberg — Graph

°F

Randaberg Temperature Yesterday

Maximum temperature yesterday: 45 °F (at 1:00 pm)
Minimum temperature yesterday: 43 °F (at 10:00 am)
Average temperature yesterday: 45 °F

High & Low Weather Summary for the Past Weeks

 TemperatureHumidityPressure
High51 °F (Nov 22, 3:00 pm)98% (Nov 26, 3:00 am)30.53 "Hg (Nov 26, 3:00 am)
Low25 °F (Dec 3, 4:00 am)64% (Nov 27, 2:00 pm)29.26 "Hg (Nov 20, 9:00 pm)
Average40 °F85%30.03 "Hg
* Reported Nov 20 12:00 am — Dec 5 12:00 am, Randaberg, Weather by CustomWeather, © 2016

Note: Actual official high and low records may vary slightly from our data, if they occured in-between our weather recording intervals... More about our weather records

Advertising

Randaberg Weather History for the Previous 24 Hours

Scroll right to see more
 ConditionsComfort  
Time TempWeatherWind HumidityBarometerVisibility
12:00 am
Mon, Dec 5
45 °FOvercast.6 mph84%30.29 "Hg22 mi
11:00 pm
Sun, Dec 4
45 °FOvercast.6 mph89%30.29 "Hg19 mi
10:00 pm44 °FOvercast.5 mph92%30.29 "Hg15 mi
9:00 pm44 °FOvercast.3 mph93%30.30 "Hg16 mi
8:00 pm44 °FOvercast.3 mph94%30.30 "Hg13 mi
7:00 pm45 °FOvercast.3 mph94%30.29 "Hg17 mi
2:00 pm45 °FPartly sunny.6 mph89%30.30 "Hg22 mi
1:00 pm45 °FOvercast.6 mph89%30.31 "Hg22 mi
12:00 pm45 °FOvercast.3 mph89%30.32 "Hg19 mi
11:00 am44 °FOvercast.5 mph90%30.32 "Hg17 mi
10:00 am43 °FSunny.5 mph92%30.31 "Hg14 mi
9:00 am44 °FOvercast.6 mph90%30.30 "Hg16 mi
8:00 am45 °FOvercast.6 mph90%30.29 "Hg14 mi
7:00 am45 °FOvercast.6 mph90%30.29 "Hg15 mi
6:00 am45 °FOvercast.6 mph89%30.28 "Hg16 mi
5:00 am45 °FOvercast.6 mph89%30.28 "Hg14 mi
4:00 am45 °FOvercast.6 mph90%30.28 "Hg14 mi
3:00 am45 °FPassing clouds.6 mph87%30.27 "Hg16 mi
2:00 am45 °FOvercast.6 mph86%30.27 "Hg17 mi
1:00 am45 °FOvercast.6 mph89%30.27 "Hg17 mi
Weather by CustomWeather, © 2016

See weather overviewHow to use our weather pages